When you browse on this site, cookies collect data to enhance your experience and personalize the content and advertising you see.
Visit our Privacy Policy to learn more. By continuing to use the site, you agree to this use of cookies and data.
  • In Romania
  • List of Countries
  • For 7 days
  • Water Temperature
  • Satellite Maps
  • Weather Map
  • Weather Widgets
  • user-avatar
    Login

    Hourly Weather Maubeuge

    Today, 19 June, Wednesday

    Time Temperature Precipitation Wind Pressure Humidity
    00:00 +18°C° 0 mm 3 mps 744 mmHg 76%
    01:00 +18°C° 0 mm 3 mps 743 mmHg 77%
    02:00 +17°C° 0 mm 3 mps 743 mmHg 79%
    03:00 +17°C° 0 mm 3 mps 742 mmHg 80%
    04:00 +18°C° 0.1 mm 4 mps 742 mmHg 80%
    05:00 +17°C° 0.1 mm 5 mps 742 mmHg 81%
    06:00 +19°C° 0 mm 3 mps 743 mmHg 84%
    07:00 +20°C° 0.3 mm 3 mps 743 mmHg 82%
    08:00 +22°C° 0.3 mm 4 mps 743 mmHg 80%
    09:00 +23°C° 0.3 mm 4 mps 743 mmHg 77%
    10:00 +25°C° 0.3 mm 5 mps 743 mmHg 73%
    11:00 +25°C° 0.3 mm 5 mps 743 mmHg 70%
    12:00 +26°C° 0.3 mm 5 mps 743 mmHg 66%
    13:00 +24°C° 0.4 mm 6 mps 743 mmHg 68%
    14:00 +24°C° 0.4 mm 6 mps 743 mmHg 71%
    15:00 +23°C° 0.4 mm 6 mps 743 mmHg 74%
    16:00 +22°C° 1.3 mm 6 mps 743 mmHg 78%
    17:00 +21°C° 1.3 mm 5 mps 743 mmHg 83%
    18:00 +20°C° 1.3 mm 5 mps 743 mmHg 88%
    19:00 +19°C° 0.6 mm 4 mps 743 mmHg 90%
    20:00 +18°C° 0.6 mm 4 mps 744 mmHg 93%
    21:00 +16°C° 0.6 mm 3 mps 744 mmHg 96%
    22:00 +16°C° 0 mm 3 mps 744 mmHg 96%
    23:00 +14°C° 0 mm 3 mps 744 mmHg 97%

    Tomorrow, 20 June, Thursday

    Time Temperature Precipitation Wind Pressure Humidity
    00:00 +13°C° 0 mm 4 mps 744 mmHg 97%
    01:00 +12°C° 0 mm 3 mps 745 mmHg 97%
    02:00 +12°C° 0 mm 3 mps 745 mmHg 97%
    03:00 +11°C° 0 mm 3 mps 745 mmHg 97%
    04:00 +12°C° 0 mm 3 mps 745 mmHg 97%
    05:00 +13°C° 0 mm 4 mps 745 mmHg 96%
    06:00 +13°C° 0 mm 4 mps 746 mmHg 96%
    07:00 +14°C° 0 mm 4 mps 746 mmHg 91%
    08:00 +15°C° 0 mm 4 mps 746 mmHg 87%
    09:00 +17°C° 0 mm 4 mps 747 mmHg 83%
    10:00 +18°C° 0 mm 4 mps 747 mmHg 76%
    11:00 +19°C° 0 mm 4 mps 747 mmHg 70%
    12:00 +20°C° 0 mm 5 mps 747 mmHg 64%
    13:00 +20°C° 0 mm 5 mps 747 mmHg 63%
    14:00 +20°C° 0 mm 5 mps 747 mmHg 62%
    15:00 +20°C° 0 mm 5 mps 747 mmHg 61%
    16:00 +19°C° 0 mm 4 mps 748 mmHg 65%
    17:00 +18°C° 0 mm 4 mps 748 mmHg 70%
    18:00 +18°C° 0 mm 3 mps 748 mmHg 74%
    19:00 +16°C° 0 mm 3 mps 749 mmHg 79%
    20:00 +13°C° 0 mm 3 mps 749 mmHg 84%
    21:00 +12°C° 0 mm 2 mps 749 mmHg 89%
    22:00 +10°C° 0 mm 2 mps 749 mmHg 90%
    23:00 +10°C° 0 mm 2 mps 750 mmHg 91%

    Day after tomorrow, 21 June, Friday

    Time Temperature Precipitation Wind Pressure Humidity
    00:00 +9°C° 0 mm 2 mps 750 mmHg 92%
    01:00 +9°C° 0 mm 2 mps 750 mmHg 93%
    02:00 +8°C° 0 mm 2 mps 750 mmHg 93%
    03:00 +8°C° 0 mm 2 mps 750 mmHg 94%
    04:00 +9°C° 0 mm 2 mps 750 mmHg 92%
    05:00 +10°C° 0 mm 2 mps 751 mmHg 90%
    06:00 +13°C° 0 mm 2 mps 751 mmHg 88%
    07:00 +14°C° 0 mm 2 mps 751 mmHg 82%
    08:00 +16°C° 0 mm 2 mps 752 mmHg 76%
    09:00 +17°C° 0 mm 2 mps 752 mmHg 70%
    10:00 +18°C° 0.1 mm 2 mps 752 mmHg 67%
    11:00 +19°C° 0.1 mm 2 mps 752 mmHg 63%
    12:00 +20°C° 0.1 mm 2 mps 752 mmHg 60%
    13:00 +20°C° 0.1 mm 2 mps 752 mmHg 61%
    14:00 +20°C° 0.1 mm 2 mps 752 mmHg 62%
    15:00 +20°C° 0.1 mm 2 mps 752 mmHg 63%
    16:00 +19°C° 0 mm 3 mps 752 mmHg 67%
    17:00 +19°C° 0 mm 3 mps 752 mmHg 71%
    18:00 +18°C° 0 mm 3 mps 752 mmHg 75%
    19:00 +16°C° 0 mm 3 mps 752 mmHg 80%
    20:00 +13°C° 0 mm 3 mps 752 mmHg 84%
    21:00 +12°C° 0 mm 3 mps 753 mmHg 89%
    22:00 +11°C° 0 mm 3 mps 753 mmHg 89%
    23:00 +10°C° 0 mm 2 mps 753 mmHg 89%

    22 June, Saturday

    Time Temperature Precipitation Wind Pressure Humidity
    00:00 +10°C° 0 mm 2 mps 753 mmHg 89%
    01:00 +9°C° 0 mm 2 mps 753 mmHg 88%
    02:00 +9°C° 0 mm 2 mps 753 mmHg 87%
    03:00 +9°C° 0 mm 2 mps 752 mmHg 87%
    04:00 +10°C° 0 mm 2 mps 752 mmHg 86%
    05:00 +11°C° 0 mm 3 mps 753 mmHg 85%
    06:00 +12°C° 0 mm 3 mps 753 mmHg 84%
    07:00 +14°C° 0 mm 3 mps 753 mmHg 81%
    08:00 +17°C° 0 mm 4 mps 752 mmHg 78%
    09:00 +19°C° 0 mm 4 mps 752 mmHg 75%
    10:00 +20°C° 0 mm 4 mps 752 mmHg 72%
    11:00 +21°C° 0 mm 4 mps 752 mmHg 69%
    12:00 +22°C° 0 mm 4 mps 752 mmHg 66%
    13:00 +23°C° 0.1 mm 4 mps 752 mmHg 66%
    14:00 +23°C° 0.1 mm 4 mps 751 mmHg 66%
    15:00 +23°C° 0.1 mm 4 mps 751 mmHg 66%
    16:00 +23°C° 0 mm 4 mps 751 mmHg 70%
    17:00 +22°C° 0 mm 3 mps 751 mmHg 73%
    18:00 +22°C° 0 mm 3 mps 751 mmHg 77%
    19:00 +20°C° 0 mm 3 mps 751 mmHg 79%
    20:00 +19°C° 0 mm 3 mps 751 mmHg 82%
    21:00 +17°C° 0 mm 3 mps 751 mmHg 84%
    22:00 +16°C° 0 mm 3 mps 751 mmHg 86%
    23:00 +16°C° 0 mm 3 mps 751 mmHg 87%

    23 June, Sunday

    Time Temperature Precipitation Wind Pressure Humidity
    00:00 +14°C° 0 mm 3 mps 751 mmHg 88%
    01:00 +10°C° 0 mm 2 mps 752 mmHg 89%
    02:00 +10°C° 0 mm 2 mps 752 mmHg 90%
    03:00 +10°C° 0 mm 2 mps 752 mmHg 91%
    04:00 +12°C° 0 mm 2 mps 752 mmHg 89%
    05:00 +13°C° 0 mm 2 mps 752 mmHg 88%
    06:00 +15°C° 0 mm 2 mps 752 mmHg 86%
    07:00 +16°C° 0 mm 3 mps 752 mmHg 81%
    08:00 +18°C° 0 mm 3 mps 752 mmHg 75%
    09:00 +20°C° 0 mm 4 mps 752 mmHg 70%
    10:00 +20°C° 0 mm 4 mps 752 mmHg 67%
    11:00 +21°C° 0 mm 4 mps 752 mmHg 65%
    12:00 +22°C° 0 mm 4 mps 752 mmHg 63%
    13:00 +22°C° 0 mm 4 mps 752 mmHg 64%
    14:00 +22°C° 0 mm 4 mps 751 mmHg 64%
    15:00 +23°C° 0 mm 4 mps 751 mmHg 65%
    16:00 +22°C° 0 mm 4 mps 751 mmHg 69%
    17:00 +22°C° 0 mm 4 mps 751 mmHg 74%
    18:00 +21°C° 0 mm 4 mps 751 mmHg 79%
    19:00 +20°C° 0 mm 4 mps 751 mmHg 82%
    20:00 +19°C° 0 mm 4 mps 751 mmHg 85%
    21:00 +17°C° 0 mm 4 mps 751 mmHg 88%
    22:00 +17°C° 0 mm 4 mps 751 mmHg 89%
    23:00 +17°C° 0 mm 4 mps 751 mmHg 89%

    24 June, Monday

    Time Temperature Precipitation Wind Pressure Humidity
    00:00 +15°C° 0 mm 4 mps 751 mmHg 90%
    01:00 +15°C° 0 mm 4 mps 750 mmHg 91%
    02:00 +16°C° 0 mm 3 mps 750 mmHg 91%
    03:00 +16°C° 0 mm 3 mps 750 mmHg 92%
    04:00 +16°C° 0 mm 3 mps 750 mmHg 89%
    05:00 +17°C° 0 mm 4 mps 750 mmHg 86%
    06:00 +18°C° 0 mm 4 mps 750 mmHg 83%
    07:00 +20°C° 0 mm 4 mps 750 mmHg 80%
    08:00 +22°C° 0 mm 4 mps 750 mmHg 76%
    09:00 +25°C° 0 mm 4 mps 750 mmHg 73%
    10:00 +26°C° 0 mm 5 mps 750 mmHg 69%
    11:00 +28°C° 0 mm 5 mps 750 mmHg 65%
    12:00 +29°C° 0 mm 5 mps 750 mmHg 62%
    13:00 +30°C° 0 mm 5 mps 750 mmHg 62%
    14:00 +30°C° 0 mm 5 mps 749 mmHg 63%
    15:00 +30°C° 0 mm 4 mps 749 mmHg 64%
    16:00 +29°C° 0 mm 4 mps 749 mmHg 68%
    17:00 +28°C° 0 mm 4 mps 749 mmHg 72%
    18:00 +28°C° 0 mm 3 mps 749 mmHg 75%
    19:00 +26°C° 0 mm 3 mps 749 mmHg 78%
    20:00 +24°C° 0 mm 3 mps 750 mmHg 80%
    21:00 +22°C° 0 mm 3 mps 750 mmHg 83%
    22:00 +22°C° 0 mm 4 mps 750 mmHg 80%
    23:00 +22°C° 0 mm 4 mps 750 mmHg 78%
    Show more